Regional Weather Roundup
Issued by NWS

Home | Current Version | Previous Version | Graphics & Text | Print | Product List | Glossary On
Versions: 1 2 3 4 5 6 7 8 9 10 11 12 13 14 15 16 17 18 19 20 21 22 23 24 25 26 27 28 29 30 31 32 33 34 35 36 37 38 39 40 41 42 43 44 45 46 47 48 49 50
000
ASUS45 KTFX 221819
RWRMT
MONTANA HOURLY WEATHER ROUNDUP
NATIONAL WEATHER SERVICE GREAT FALLS MT
1119 AM MST MON DEC 22 2014

NOTE: "FAIR" INDICATES FEW OR NO CLOUDS BELOW 12000 FEET WITH NO
SIGNIFICANT WEATHER AND/OR OBSTRUCTIONS TO VISIBILITY.

* THESE STATIONS ARE NOT UNDER NWS QUALITY CONTROL. THEY DO NOT
   REPORT WEATHER SUCH AS PRECIPITATION OR FOG.

MTZ001>007-043-221900-
WEST OF THE DIVIDE
CITY           SKY/WX    TMP DP  RH WIND       PRES   REMARKS
KALISPELL      CLOUDY    34  30  85 CALM      29.99R
MISSOULA       CLOUDY    37  27  67 NW9G20    30.04R WCI  30
BUTTE          CLOUDY    28  23  81 W8        29.95R WCI  20
MULLAN PASS    FOG       25  23  92 NW9       30.00R VSB 1    WCI  16
* ESSEX        N/A       34  27  76 S3G10      N/A
* EUREKA APT   PTCLDY    36  28  73 SW5       30.02R WCI  32
* HAMILTON APT CLOUDY    32  30  92 N3        30.05R
* LIBBY APT    PTCLDY    39  28  65 CALM      30.04R
* LINCOLN      N/A       31  26  82 S6G16      N/A   WCI  25
* LOOKOUT PASS N/A       30  27  89 NE2G9      N/A
* POLSON       N/A       37  24  59 NW2G7      N/A
* RONAN APT    CLOUDY    37  28  70 N/A        N/A
* SEELEY LAKE  N/A       32  29  89 SE1        N/A
* THOMP F APT  PTSUNNY   29  19  66 SE4G11     N/A
$$

MTZ008-052>055-221900-
SOUTHWEST MONTANA
CITY           SKY/WX    TMP DP  RH WIND       PRES   REMARKS
BOZEMAN        CLOUDY    34  25  70 CALM      29.92R
DILLON         CLOUDY    32  25  75 NW10      29.94R WCI  24
* W YELLOWSTON PTSUNNY   25  21  85 NE4G12     N/A
* THREE FORKS  PTCLDY    39  27  62 N/A        N/A
* BOULDER HILL N/A       31  12  45 VRB8G18    N/A   WCI  24
* MONIDA PASS  N/A       26  18  72 NW11G17    N/A   WCI  16
* RAYNOLDS PAS N/A       24  24 100 N9         N/A   WCI  14
* WHITEHALL    N/A       35  26  70 W10G15     N/A   WCI  27
* WISE RIVER   N/A       30  19  64 W7         N/A   WCI  23
$$

MTZ009>010-012-014-046-048-049-054-221900-
EAST SLOPES AND CENTRAL MONTANA
CITY           SKY/WX    TMP DP  RH WIND       PRES   REMARKS
CUT BANK       CLOUDY    36  25  64 W14       29.87R WCI  27
GREAT FALLS    CLOUDY    37  25  62 W15       29.85R WCI  28
HELENA         CLOUDY    37  21  52 W15       29.91R WCI  28
* CONRAD       PTSUNNY   37  25  62 SW17G26    N/A   WCI  27
* DEARBORN     N/A       34  27  76 NE1        N/A
* EAST GLACIER N/A       32  18  56 W11G17     N/A   WCI  23
* MONARCH      N/A       30  14  51 W18G23     N/A   WCI  18
* PENDROY      N/A       36  22  57 W18G26     N/A   WCI  26
* ROGERS PASS  N/A       28  23  81 E11G18     N/A   WCI  18
* SWEET GRASS  N/A       31  21  66 NW8        N/A   WCI  24
* WHITE SULPH  N/A       32  22  67 NW9        N/A   WCI  24
$$

MTZ011-013-016-021-035-040-045-047-050-051-221900-
NORTH CENTRAL MONTANA
CITY           SKY/WX    TMP DP  RH WIND       PRES   REMARKS
HAVRE          CLOUDY    34  27  76 SW10      29.84R WCI  26
LEWISTOWN      CLOUDY    36  21  54 NW10      29.82R WCI  29
* N BAR RANCH  PTSUNNY   34  19  54 NW26G38   29.75S WCI  21
* CHINOOK      PTSUNNY   36  27  70 W16       29.82R WCI  26
* CHESTER      N/A       30  21  69 N2         N/A
* DENTON       N/A       37  22  55 NW17G22    N/A   WCI  27
* GEYSER       N/A       36  21  54 W14G21     N/A   WCI  27
* JUDITH GAP   N/A       36  23  59 NW16G24    N/A   WCI  26
* LOMA         N/A       34  23  64 SW9        N/A   WCI  27
$$

MTZ017>020-022>027-061-062-221900-
NORTHEAST MONTANA
CITY           SKY/WX    TMP DP  RH WIND       PRES   REMARKS
GLASGOW        CLOUDY    30  27  89 NW16      29.70R WCI  19
GLENDIVE       CLOUDY    27  21  78 NW24G32   29.65R VSB 2    WCI  12
JORDAN         PTSUNNY   34  27  76 NW22G30   29.73R WCI  22
SIDNEY         CLOUDY    27  21  78 NW18      29.66R VSB 3    WCI  14
WOLF POINT     LGT SNOW  28  23  81 NW10      29.70R VSB 1 1/2 WCI  19
* BEAVER HILL  N/A       24  22  92 NW26       N/A   WCI   8
* CIRCLE       N/A       30  26  85 NW15G24    N/A   WCI  19
* LINDSAY DVD  N/A       26  25  96 NW27G32    N/A   WCI  10
* NAVAJO       N/A       22  19  88 NW18G24    N/A   WCI   8
* PLENTYWOOD A CLOUDY    25  21  85 NW14      29.63R WCI  13
* POPLAR APT   CLOUDY    27  21  78 NW14      29.68R VSB 2 1/2 WCI  16
* SACO         N/A       34  29  82 W10G15     N/A   WCI  26
$$

MTZ028>042-056>058-221900-
SOUTHCENTRAL AND SOUTHEAST MONTANA
CITY           SKY/WX    TMP DP  RH WIND       PRES   REMARKS
BAKER          LGT SNOW  30  28  92 NW26G32   29.58S VSB 3/4  WCI  16
BILLINGS       CLOUDY    37  27  67 NW22      29.80R WCI  26
LIVINGSTON     PTSUNNY   36  21  54 W22       29.86R WCI  25
MILES CITY     CLOUDY    37  27  67 NW31G38   29.68R WCI  24
* FORSYTH APT  PTSUNNY   39  25  57 W15G25    29.71R WCI  31
* LAUREL APT   CLOUDY    37  19  48 W13G22     N/A   WCI  29
* ROUNDUP APT  CLOUDY    37  19  48 W6         N/A   WCI  32
* ALZADA       N/A       37  25  62 W22G27     N/A   WCI  26
* HYSHAM       N/A       38  20  48 NW16G26    N/A   WCI  29
* LAME DEER    N/A       34  22  61 NW15G23    N/A   WCI  24
* REED POINT   N/A       39  23  53 W16        N/A   WCI  30
* ROSCOE HILL  N/A       34   9  35 W10G21     N/A   WCI  26
$$

REGIONAL REPORTS...DAKOTAS
CITY           SKY/WX    TMP DP  RH WIND       PRES   REMARKS
WILLISTON      CLOUDY    27  21  78 N17       29.62R WCI  14
DICKINSON      LGT SNOW  27  23  85 NW18G25   29.51R VSB 1    WCI  14
BEACH          LGT SNOW  25  25 100 NW24G33   29.59R VSB 1 1/4 WCI  10
CROSBY         FOG       25  25 100 NW13      29.62R VSB 1    WCI  13
TIOGA          FOG       28  28 100 N12       29.59R VSB 3    WCI  18
WATFORD CITY   CLOUDY    25  25 100 NW16G22   29.56S WCI  12
BISMARCK       CLOUDY    28  27  96 N6        29.50S WCI  21
GRAND FORKS    FOG       36  36 100 E8        29.53F VSB 3    WCI  30
FARGO          LGT RAIN  39  37  93 SE9       29.50S WCI  33
BUFFALO SD     CLOUDY    34  28  79 NW29G39   29.46R WCI  20
RAPID CITY     PTSUNNY   45  19  35 NW37G51   29.50F
$$

REGIONAL REPORTS...WYOMING/IDAHO/WASHINGTON
CITY           SKY/WX    TMP DP  RH WIND       PRES   REMARKS
GILLETTE       PTSUNNY   36  25  64 NW24G33   29.66F WCI  24
SHERIDAN       PTSUNNY   37  25  62 NW31G37   29.74R WCI  24
CODY           PTCLDY    36  16  44 NW14G21   29.79R WCI  27
YELLOWSTONE LA PTSUNNY   21  16  81 VRB6      29.87R WCI  13
SALMON         PTSUNNY   34  30  85 S3        30.02S
MULLAN PASS    FOG       25  23  92 NW9       30.00S VSB 1    WCI  16
SAND POINT     PTCLDY    39  32  76 S8        30.10R WCI  33
SPOKANE        PTCLDY    37  30  76 W12       30.14R WCI  29
$$

REGIONAL REPORTS...ALBERTA
CITY           SKY/WX    TMP DP  RH WIND       PRES   REMARKS
CALGARY        PTSUNNY   32  19  59 CALM      29.88R
LETHBRIDGE     PTSUNNY   36  25  64 W17       29.88R WCI  26
MEDICINE HAT   PTCLDY    36  30  79 W14       29.85R WCI  27
EDMONTON       PTSUNNY   28  23  81 W9        29.84R WCI  19
WATERTON GATE  N/A       36  21  54 SW13G20    N/A   WCI  27
CARDSTON       N/A       36  25  64 NW13G22    N/A   WCI  27
MILK RIVER     N/A       36  25  64 NW22       N/A   WCI  25
$$

REGIONAL REPORTS...SASKATCHEWAN
CITY           SKY/WX    TMP DP  RH WIND       PRES   REMARKS
SWIFT CURRENT  LGT SNOW  21  19  92 NW20      29.72R VSB 3    WCI   6
REGINA         LGT SNOW  25  23  92 N12       29.69R VSB 2 1/2 WCI  14
VAL MARIE      N/A       32  28  85 NW22G28    N/A   WCI  19
ASSINIBOIA     N/A       21  18  88 NW18       N/A   WCI   6
CORONACH       N/A       21  18  88 NW17       N/A   WCI   7

$$



USA.gov is the U.S. government's official web portal to all federal, state and local government web resources and services.